Overview Statistics Trail Chart Weather Telemetry Raw packets
 

This is the latest recevied weather packets stored in our database for station/object W8KVG. If no packets are shown the sender has not sent any weather packets the latest 10 day(s).

<< 39 40 41 42 43 44 45 >>
Time Temp. Humidity Pressure Rain* Wind** Luminosity Snow
1777674744 8.33° C 96% 1010.3 hPa 0 mm - 7 W/m² -
1777674439 8.33° C 96% 1010.2 hPa 0 mm - 23 W/m² -
1777674137 8.33° C 96% 1010.2 hPa 0 mm - 16 W/m² -
1777673834 7.78° C 96% 1010.5 hPa 0 mm - 27 W/m² -
1777673531 8.33° C 96% 1010.5 hPa 0 mm - 21 W/m² -
1777673228 8.33° C 97% 1010.4 hPa 0 mm - 27 W/m² -
1777672925 8.33° C 97% 1010.5 hPa 0 mm - 38 W/m² -
1777672623 8.33° C 97% 1010.4 hPa 0 mm - 31 W/m² -
1777672317 8.33° C 97% 1010.5 hPa 0 mm - 44 W/m² -
1777672013 8.33° C 97% 1010.5 hPa 0 mm - 74 W/m² -
1777671708 7.78° C 97% 1010.4 hPa 0 mm - 88 W/m² -
1777671406 7.78° C 97% 1010.3 hPa 0 mm - 59 W/m² -
1777671101 7.78° C 97% 1010.5 hPa 0 mm - 34 W/m² -
1777670798 7.78° C 97% 1010.6 hPa 0 mm - 27 W/m² -
1777670495 7.78° C 97% 1010.4 hPa 0 mm - 35 W/m² -
1777670192 7.78° C 97% 1010.5 hPa 0 mm - 35 W/m² -
1777669890 7.78° C 97% 1010.4 hPa 0 mm - 48 W/m² -
1777669586 7.78° C 98% 1010.4 hPa 0 mm - 58 W/m² -
1777669283 7.78° C 98% 1010.5 hPa 0.51 mm - 51 W/m² -
1777668979 7.78° C 98% 1010.5 hPa 0.51 mm - 42 W/m² -
1777668677 7.78° C 98% 1010.8 hPa 0 mm - 52 W/m² -
1777668373 7.22° C 97% 1010.9 hPa 0.51 mm - 17 W/m² -
1777668069 7.78° C 97% 1010.8 hPa 0.51 mm - 21 W/m² -
1777667766 7.22° C 97% 1010.6 hPa 0.51 mm - 38 W/m² -
1777667463 7.22° C 96% 1010.7 hPa 1.78 mm - 28 W/m² -

* Rain latest hour (hover to see other rain measurements)
** Current wind speed in m/s (hover to see current wind gust speed)